Location: Newark
(13.5236°S, 71.9791°W)
Time: 17:24:04
(UTC+00:00)

Envisat - Visible Passes

Search period start: 17 July 2019 00:00
Search period end: 27 July 2019 00:00
Orbit: 764 x 766 km, 98.1° (Epoch: 17 July)

Date Brightness Start Highest point End Pass type
(mag) Time Alt. Az. Time Alt. Az. Time Alt. Az.
17 Jul 5.9 01:01:29 10° WSW 01:02:48 11° WSW 01:04:08 10° W visible
17 Jul 5.8 10:21:28 10° ENE 10:23:53 13° ESE 10:26:19 10° SE visible
18 Jul 4.7 00:21:53 10° SSW 00:26:19 31° WSW 00:30:44 10° NW visible
18 Jul 3.0 23:44:35 10° S 23:49:43 85° W 23:54:47 10° NNW visible
19 Jul 5.2 10:44:58 10° NE 10:49:14 27° ESE 10:53:29 10° SSE visible
19 Jul 3.7 23:08:24 10° SE 23:13:00 34° E 23:17:33 10° NNE visible
20 Jul 5.7 00:48:47 10° SW 00:51:40 15° WSW 00:54:31 10° WNW visible
21 Jul 4.2 00:10:22 10° S 00:15:08 41° WSW 00:19:52 10° NW visible
21 Jul 2.9 23:33:25 10° SSE 23:38:29 71° E 23:43:32 10° N visible
22 Jul 5.6 10:34:21 10° ENE 10:38:03 21° ESE 10:41:45 10° SSE visible
22 Jul 4.1 22:57:36 10° SE 23:01:46 25° E 23:05:53 10° NNE visible
23 Jul 5.3 00:36:48 10° SSW 00:40:30 20° WSW 00:44:11 10° WNW visible
23 Jul 3.6 23:58:57 10° S 00:03:56 56° WSW 00:08:53 10° NNW visible
24 Jul 3.2 23:22:18 10° SSE 23:27:16 52° E 23:32:11 10° N visible
25 Jul 5.8 10:24:00 10° ENE 10:26:53 15° ESE 10:29:47 10° SE visible
26 Jul 4.9 00:25:04 10° SSW 00:29:20 27° WSW 00:33:34 10° NW visible
26 Jul 3.1 23:47:38 10° S 23:52:44 76° WSW 23:57:47 10° NNW visible
